Regional Weather Roundup
Issued by NWS

Home | Current Version | Previous Version | Graphics & Text | Print | Product List | Glossary On
Versions: 1 2 3 4 5 6 7 8 9 10 11 12 13 14 15 16 17 18 19 20 21 22 23 24 25 26 27 28 29 30 31 32 33 34 35 36 37 38 39 40 41 42 43 44 45 46 47 48 49 50
000
ASUS43 KLMK 010210
RWRKY
KENTUCKY REGIONAL WEATHER ROUNDUP
NATIONAL WEATHER SERVICE LOUISVILLE KY
1000 PM EDT WED AUG 31 2016

NOTE "FAIR" INDICATES FEW OR NO CLOUDS BELOW 12,000 FEET
WITH NO SIGNIFICANT WEATHER AND/OR OBSTRUCTIONS TO VISIBILITY.

KYZ001>023-026-027-061>063-070>075-010300-
WESTERN AND SOUTH CENTRAL KENTUCKY

CITY           SKY/WX    TMP DP  RH WIND       PRES   REMARKS
PADUCAH        PTCLDY    76  70  82 N7        29.98R
HENDERSON      CLOUDY    75  70  83 N5        29.96R
OWENSBORO      PTCLDY    81  73  76 N5        29.96R
HOPKINSVILLE   CLEAR     79  72  78 CALM      29.95S
BOWLING GREEN  PTCLDY    79  73  82 CALM      29.96R
GLASGOW        CLEAR     73  73 100 CALM      29.96S
$$

KYZ024-025-028>034-038-045-046-053-010300-
NORTH CENTRAL KENTUCKY

CITY           SKY/WX    TMP DP  RH WIND       PRES   REMARKS
LOUISVILLE/SDF MOCLDY    77  72  84 N5        29.96R
LOUISVILLE/LOU PTCLDY    75  73  93 CALM      29.96R
FORT KNOX      PTCLDY    72  70  95 N2        29.96S
$$

KYZ035>037-039>044-047>052-055>060-089>105-010300-
NORTHEAST KENTUCKY

CITY           SKY/WX    TMP DP  RH WIND       PRES   REMARKS
LEXINGTON      PTCLDY    73  68  84 NE6       29.98S
COVINGTON      CLOUDY    74  70  87 N6        29.98R
FRANKFORT      CLOUDY    74  70  87 CALM      29.97R
$$

KYZ054-064>069-076>088-106>120-010300-
SOUTHEAST KENTUCKY

CITY           SKY/WX    TMP DP  RH WIND       PRES   REMARKS
JACKSON        CLOUDY    77  70  79 N5        29.99R
LONDON         PTCLDY    75  69  81 CALM      29.98R
SOMERSET       PTCLDY    73  68  83 CALM      29.98S
MIDDLESBORO    CLEAR     75  71  88 CALM      29.98R
MONTICELLO     CLEAR    N/A N/A N/A CALM      29.99S
$$





USA.gov is the U.S. government's official web portal to all federal, state and local government web resources and services.